| time (UTC) | temp C | wind direction | speed KPH | gust KPH | rain 1hr cm | rain 24hr cm | rain mn cm | humidity % | barometer mb |
| 20260507060030 | 11 | 204 | 3.2 | 12.9 | 0.00 | 0.28 | 0.00 | 97 | 1003.4 |
| 20260507054527 | 11 | 156 | 4.8 | 12.9 | 0.00 | 0.28 | 0.00 | 97 | 1003.8 |
| 20260507053026 | 11 | 188 | 6.4 | 16.1 | 0.00 | 0.28 | 0.00 | 97 | 1004.0 |
| 20260507051525 | 11 | 227 | 8.0 | 24.1 | 0.00 | 0.28 | 0.00 | 97 | 1004.1 |
| 20260507050026 | 11 | 199 | 4.8 | 17.7 | 0.00 | 0.28 | 0.00 | 97 | 1004.3 |
| 20260507044519 | 11 | 199 | 6.4 | 17.7 | 0.00 | 0.28 | 0.00 | 97 | 1004.2 |
| 20260507043018 | 11 | 219 | 6.4 | 20.9 | 0.00 | 0.28 | 0.00 | 97 | 1004.3 |
| 20260507041515 | 11 | 211 | 8.0 | 22.5 | 0.00 | 0.28 | 0.00 | 97 | 1004.5 |
| 20260507040013 | 12 | 213 | 6.4 | 22.5 | 0.00 | 0.28 | 0.28 | 97 | 1004.6 |
| 20260507034508 | 12 | 225 | 9.7 | 22.5 | 0.00 | 0.28 | 0.28 | 97 | 1004.7 |
| 20260507033016 | 12 | 205 | 6.4 | 16.1 | 0.00 | 0.28 | 0.28 | 97 | 1004.6 |
| 20260507031507 | 12 | 205 | 6.4 | 22.5 | 0.00 | 0.28 | 0.28 | 97 | 1004.5 |
| 20260507030007 | 12 | 188 | 9.7 | 17.7 | 0.00 | 0.28 | 0.28 | 97 | 1004.2 |
| 20260507024503 | 12 | 185 | 8.0 | 22.5 | 0.00 | 0.28 | 0.28 | 97 | 1004.5 |
| 20260507023107 | 12 | 195 | 9.7 | 24.1 | 0.00 | 0.28 | 0.28 | 97 | 1004.9 |
| 20260507021602 | 13 | 186 | 8.0 | 19.3 | 0.00 | 0.28 | 0.28 | 96 | 1004.9 |
| 20260507020100 | 13 | 205 | 9.7 | 16.1 | 0.00 | 0.28 | 0.28 | 96 | 1005.1 |
| 20260507014603 | 13 | 194 | 11.3 | 33.8 | 0.00 | 0.28 | 0.28 | 96 | 1005.1 |
| 20260507013054 | 13 | 360 | 9.7 | 27.4 | 0.03 | 0.28 | 0.28 | 97 | 1005.3 |
| 20260507011553 | 13 | 174 | 8.0 | 24.1 | 0.03 | 0.28 | 0.28 | 97 | 1005.2 |
| 20260507010057 | 14 | 212 | 6.4 | 24.1 | 0.05 | 0.28 | 0.28 | 97 | 1005.2 |
| 20260507004552 | 13 | 229 | 8.0 | 14.5 | 0.08 | 0.28 | 0.28 | 97 | 1005.2 |
| 20260507003052 | 13 | 169 | 9.7 | 17.7 | 0.13 | 0.25 | 0.25 | 97 | 1005.1 |
| 20260507001554 | 13 | 160 | 6.4 | 14.5 | 0.18 | 0.25 | 0.25 | 97 | 1005.1 |
| 20260507000049 | 13 | 360 | 6.4 | 16.1 | 0.20 | 0.23 | 0.23 | 96 | 1005.0 |
| 20260506234549 | 13 | 360 | 6.4 | 16.1 | 0.18 | 0.18 | 0.18 | 95 | 1004.9 |
| 20260506233055 | 13 | 188 | 6.4 | 30.6 | 0.13 | 0.13 | 0.13 | 95 | 1005.0 |
| 20260506231543 | 13 | 194 | 8.0 | 20.9 | 0.08 | 0.08 | 0.08 | 94 | 1005.4 |
| 20260506230040 | 14 | 175 | 6.4 | 17.7 | 0.03 | 0.03 | 0.03 | 93 | 1005.7 |
| 20260506224539 | 14 | 213 | 8.0 | 29.0 | 0.00 | 0.00 | 0.00 | 91 | 1005.7 |
| 20260506223038 | 15 | 360 | 9.7 | 22.5 | 0.00 | 0.00 | 0.00 | 88 | 1005.7 |
| 20260506221538 | 16 | 187 | 8.0 | 25.7 | 0.00 | 0.00 | 0.00 | 84 | 1005.7 |
| 20260506220038 | 16 | 175 | 8.0 | 19.3 | 0.00 | 0.00 | 0.00 | 82 | 1005.4 |
| 20260506214536 | 16 | 360 | 6.4 | 24.1 | 0.00 | 0.00 | 0.00 | 82 | 1005.7 |
| 20260506213035 | 16 | 180 | 6.4 | 32.2 | 0.00 | 0.00 | 0.00 | 82 | 1006.0 |
| 20260506211535 | 16 | 188 | 12.9 | 29.0 | 0.00 | 0.00 | 0.00 | 81 | 1006.1 |
| 20260506210033 | 16 | 184 | 8.0 | 17.7 | 0.00 | 0.00 | 0.00 | 80 | 1006.0 |
| 20260506204531 | 16 | 360 | 8.0 | 20.9 | 0.00 | 0.00 | 0.00 | 79 | 1006.1 |
| 20260506203030 | 16 | 171 | 9.7 | 25.7 | 0.00 | 0.00 | 0.00 | 79 | 1006.4 |
| 20260506201531 | 17 | 175 | 6.4 | 24.1 | 0.00 | 0.00 | 0.00 | 78 | 1006.4 |
| 20260506200029 | 16 | 159 | 8.0 | 33.8 | 0.00 | 0.00 | 0.00 | 78 | 1006.6 |
| 20260506194527 | 16 | 190 | 9.7 | 19.3 | 0.00 | 0.00 | 0.00 | 78 | 1006.9 |
| 20260506193028 | 16 | 174 | 8.0 | 29.0 | 0.00 | 0.00 | 0.00 | 78 | 1007.0 |
| 20260506191526 | 17 | 172 | 6.4 | 33.8 | 0.00 | 0.00 | 0.00 | 77 | 1007.1 |
| 20260506190025 | 17 | 203 | 9.7 | 27.4 | 0.00 | 0.00 | 0.00 | 76 | 1007.1 |
| 20260506184523 | 17 | 193 | 11.3 | 30.6 | 0.00 | 0.00 | 0.00 | 74 | 1007.3 |
| 20260506183022 | 17 | 360 | 11.3 | 35.4 | 0.00 | 0.00 | 0.00 | 75 | 1007.5 |
| 20260506181521 | 18 | 203 | 9.7 | 45.1 | 0.00 | 0.00 | 0.00 | 74 | 1007.8 |
| 20260506180019 | 19 | 163 | 11.3 | 22.5 | 0.00 | 0.00 | 0.00 | 70 | 1008.3 |
| 20260506174517 | 20 | 188 | 9.7 | 19.3 | 0.00 | 0.00 | 0.00 | 70 | 1008.2 |
| 20260506173016 | 19 | 175 | 12.9 | 35.4 | 0.00 | 0.00 | 0.00 | 71 | 1008.1 |
| 20260506171513 | 18 | 200 | 9.7 | 29.0 | 0.00 | 0.00 | 0.00 | 73 | 1008.4 |
| 20260506170011 | 18 | 360 | 9.7 | 29.0 | 0.00 | 0.00 | 0.00 | 73 | 1008.5 |
| 20260506164510 | 18 | 211 | 8.0 | 37.0 | 0.00 | 0.00 | 0.00 | 74 | 1008.8 |
| 20260506163021 | 19 | 190 | 11.3 | 29.0 | 0.00 | 0.00 | 0.00 | 72 | 1009.0 |
| 20260506161508 | 19 | 140 | 11.3 | 41.8 | 0.00 | 0.00 | 0.00 | 72 | 1009.0 |
| 20260506160015 | 18 | 186 | 12.9 | 33.8 | 0.00 | 0.00 | 0.00 | 73 | 1009.2 |
| 20260506154504 | 19 | 155 | 14.5 | 37.0 | 0.00 | 0.00 | 0.00 | 71 | 1009.7 |
| 20260506153003 | 19 | 170 | 14.5 | 32.2 | 0.00 | 0.00 | 0.00 | 72 | 1009.6 |
| 20260506151503 | 19 | 189 | 9.7 | 30.6 | 0.00 | 0.00 | 0.00 | 71 | 1009.7 |
| 20260506150002 | 18 | 243 | 12.9 | 30.6 | 0.00 | 0.00 | 0.00 | 74 | 1009.7 |
| 20260506144600 | 18 | 176 | 11.3 | 27.4 | 0.00 | 0.00 | 0.00 | 74 | 1009.8 |
| 20260506143108 | 18 | 157 | 6.4 | 22.5 | 0.00 | 0.00 | 0.00 | 73 | 1009.4 |
| 20260506141559 | 19 | 209 | 9.7 | 35.4 | 0.00 | 0.00 | 0.00 | 73 | 1009.7 |
| 20260506140100 | 20 | 360 | 11.3 | 29.0 | 0.00 | 0.00 | 0.00 | 71 | 1009.8 |
| 20260506134555 | 18 | 213 | 16.1 | 46.7 | 0.00 | 0.00 | 0.00 | 73 | 1009.7 |
| 20260506133053 | 18 | 200 | 11.3 | 43.5 | 0.00 | 0.00 | 0.00 | 75 | 1009.6 |
| 20260506131551 | 18 | 199 | 11.3 | 29.0 | 0.00 | 0.00 | 0.00 | 75 | 1009.7 |
| 20260506130049 | 18 | 360 | 9.7 | 19.3 | 0.00 | 0.00 | 0.00 | 77 | 1009.7 |
| 20260506124546 | 17 | 170 | 9.7 | 19.3 | 0.00 | 0.00 | 0.00 | 78 | 1009.9 |
| 20260506123043 | 17 | 220 | 8.0 | 25.7 | 0.00 | 0.00 | 0.00 | 80 | 1009.9 |
| 20260506121543 | 16 | 178 | 8.0 | 24.1 | 0.00 | 0.00 | 0.00 | 81 | 1010.1 |
| 20260506120037 | 16 | 194 | 6.4 | 17.7 | 0.00 | 0.00 | 0.00 | 83 | 1010.2 |
| 20260506114543 | 16 | 229 | 8.0 | 32.2 | 0.00 | 0.00 | 0.00 | 84 | 1010.4 |
| 20260506113036 | 16 | 192 | 11.3 | 30.6 | 0.00 | 0.00 | 0.00 | 83 | 1010.3 |
| 20260506111538 | 16 | 190 | 11.3 | 29.0 | 0.00 | 0.00 | 0.00 | 84 | 1010.2 |
| 20260506110033 | 15 | 207 | 9.7 | 24.1 | 0.00 | 0.00 | 0.00 | 86 | 1010.4 |
| 20260506104528 | 15 | 224 | 11.3 | 17.7 | 0.00 | 0.00 | 0.00 | 87 | 1010.3 |
| 20260506103027 | 14 | 186 | 8.0 | 19.3 | 0.00 | 0.00 | 0.00 | 88 | 1010.2 |
| 20260506101526 | 14 | 155 | 8.0 | 16.1 | 0.00 | 0.00 | 0.00 | 88 | 1010.2 |
| 20260506100021 | 14 | 225 | 8.0 | 20.9 | 0.00 | 0.00 | 0.00 | 89 | 1010.2 |
| 20260506094519 | 13 | 174 | 8.0 | 25.7 | 0.00 | 0.00 | 0.00 | 90 | 1010.2 |
| 20260506093019 | 13 | 191 | 8.0 | 27.4 | 0.00 | 0.00 | 0.00 | 90 | 1010.4 |
| 20260506091522 | 13 | 211 | 6.4 | 27.4 | 0.00 | 0.00 | 0.00 | 90 | 1010.3 |
| 20260506090022 | 13 | 231 | 8.0 | 22.5 | 0.00 | 0.00 | 0.00 | 91 | 1010.3 |
| 20260506084517 | 13 | 188 | 8.0 | 27.4 | 0.00 | 0.00 | 0.00 | 91 | 1010.4 |
| 20260506083015 | 13 | 205 | 8.0 | 40.2 | 0.00 | 0.00 | 0.00 | 91 | 1010.4 |
| 20260506081515 | 13 | 207 | 11.3 | 25.7 | 0.00 | 0.00 | 0.00 | 91 | 1010.3 |
| 20260506073011 | 13 | 210 | 9.7 | 24.1 | 0.00 | 0.00 | 0.00 | 91 | 1010.4 |
| 20260506071509 | 13 | 360 | 9.7 | 29.0 | 0.00 | 0.00 | 0.00 | 91 | 1010.4 |
| 20260506061513 | 13 | 199 | 8.0 | 19.3 | 0.00 | 0.00 | 0.00 | 89 | 1010.4 |